Powrót do katalogu

INTELSAT 33E DEB

AktywnyMEO
NORAD 61989·DEBRIS· XX

Wystrzelony Aug 24, 2016 z Guiana Space Centre

Loading…

Następne Przeloty (najbliższe 24 godziny)

TLE

ŚwieżeSource: Space-Track

Epoka: Sep 13, 2026, 18:47 UTC

1 61989U 16053F   26256.78311535 -.00000131  00000-0  00000-0 0  9998
2 61989   2.7645 107.6402 0830530  92.6997 277.3693  0.98037635  6712

Śledź INTELSAT 33E DEB w czasie rzeczywistym z AllMySat

Download on the App Store